AFR7274 EKCH-EDDS

Flight info

Callsign AFR7274
Flight time 1h 34m
Altitude 38000
Route NEXEN T503 GIMRU DCT MICOS DCT BERXO DCT SILWE DCT OSBIT P605 TOSTU T726 LBU
Aircraft A320/M-SDE3FGHIRWY/LB1

Departure

Time 2026-05-04 15:01
Airport Copenhagen Kastrup Airport (EKCH)

Arrival

Time 2026-05-04 16:35
Airport Stuttgart Airport (EDDS)
Time Latitude Longitude Altitude Speed Heading
2026-05-04 14:21 55.62893 12.63935 24 ft 0 kts 13°
2026-05-04 14:31 55.62893 12.63934 24 ft 0 kts 13°
2026-05-04 14:38 55.62892 12.63934 24 ft 0 kts 13°
2026-05-04 14:50 55.62882 12.63930 26 ft 4 kts 19°
2026-05-04 14:50 55.62859 12.63908 26 ft 4 kts 46°
2026-05-04 14:50 55.62845 12.63869 26 ft 4 kts 83°
2026-05-04 14:51 55.62845 12.63844 29 ft 0 kts 104°
2026-05-04 14:55 55.62843 12.63860 25 ft 2 kts 104°
2026-05-04 14:55 55.62840 12.63884 24 ft 2 kts 104°
2026-05-04 14:55 55.62830 12.63926 26 ft 9 kts 120°
2026-05-04 14:56 55.62761 12.63937 26 ft 11 kts 213°
2026-05-04 14:56 55.62690 12.63856 24 ft 13 kts 208°
2026-05-04 14:56 55.62628 12.63922 24 ft 11 kts 122°
2026-05-04 14:56 55.62588 12.64033 24 ft 10 kts 123°
2026-05-04 14:57 55.62550 12.64136 24 ft 10 kts 123°
2026-05-04 14:57 55.62515 12.64231 24 ft 9 kts 123°
2026-05-04 14:57 55.62481 12.64316 26 ft 10 kts 129°
2026-05-04 14:57 55.62431 12.64427 24 ft 11 kts 130°
2026-05-04 14:58 55.62369 12.64437 24 ft 9 kts 196°
2026-05-04 14:58 55.62290 12.64399 23 ft 15 kts 195°
2026-05-04 14:58 55.62179 12.64325 23 ft 18 kts 207°
2026-05-04 14:58 55.62103 12.64261 25 ft 19 kts 205°
2026-05-04 14:59 55.61945 12.64130 24 ft 16 kts 205°
2026-05-04 14:59 55.61863 12.64070 24 ft 10 kts 187°
2026-05-04 14:59 55.61735 12.64084 25 ft 8 kts 176°
2026-05-04 15:00 55.61702 12.64087 25 ft 6 kts 177°
2026-05-04 15:00 55.61666 12.64090 27 ft 5 kts 177°
2026-05-04 15:00 55.61630 12.64076 27 ft 7 kts 210°
2026-05-04 15:01 55.61355 12.63650 28 ft 82 kts 221°
2026-05-04 15:01 55.60759 12.62729 30 ft 142 kts 222°
2026-05-04 15:01 55.59910 12.61429 273 ft 170 kts 226°
2026-05-04 15:01 55.59025 12.60043 1096 ft 169 kts 226°
2026-05-04 15:02 55.58134 12.58654 1936 ft 171 kts 225°
2026-05-04 15:02 55.57202 12.57197 2446 ft 191 kts 225°
2026-05-04 15:02 55.56076 12.55657 2864 ft 219 kts 218°
2026-05-04 15:02 55.54759 12.54051 3472 ft 241 kts 218°
2026-05-04 15:03 55.53323 12.52305 4226 ft 255 kts 218°
2026-05-04 15:03 55.51869 12.50539 5246 ft 258 kts 218°
2026-05-04 15:03 55.50382 12.48739 6290 ft 261 kts 219°
2026-05-04 15:03 55.48881 12.46917 7174 ft 262 kts 219°
2026-05-04 15:04 55.47379 12.45087 8167 ft 264 kts 219°
2026-05-04 15:04 55.45862 12.43237 9140 ft 267 kts 219°
2026-05-04 15:04 55.44327 12.41359 10073 ft 271 kts 218°
2026-05-04 15:04 55.42720 12.39393 10510 ft 293 kts 218°
2026-05-04 15:05 55.40999 12.37288 11074 ft 307 kts 218°
2026-05-04 15:05 55.39227 12.35133 11876 ft 312 kts 218°
2026-05-04 15:05 55.37424 12.32944 12740 ft 316 kts 218°
2026-05-04 15:05 55.35602 12.30739 13600 ft 320 kts 218°
2026-05-04 15:06 55.33762 12.28510 14364 ft 323 kts 219°
2026-05-04 15:06 55.31909 12.26268 15101 ft 326 kts 219°
2026-05-04 15:06 55.30036 12.24000 15839 ft 329 kts 219°
2026-05-04 15:07 55.26253 12.19433 17305 ft 335 kts 219°
2026-05-04 15:07 55.24298 12.17076 18042 ft 338 kts 219°
2026-05-04 15:07 55.22350 12.14732 18691 ft 341 kts 219°
2026-05-04 15:07 55.20384 12.12367 19319 ft 344 kts 219°
2026-05-04 15:08 55.18444 12.09975 19939 ft 347 kts 220°
2026-05-04 15:08 55.16488 12.07485 20565 ft 349 kts 220°
2026-05-04 15:08 55.14527 12.04948 21192 ft 352 kts 220°
2026-05-04 15:08 55.12555 12.02387 21795 ft 354 kts 220°
2026-05-04 15:09 55.10567 11.99813 22393 ft 357 kts 220°
2026-05-04 15:09 55.08563 11.97236 22983 ft 360 kts 220°
2026-05-04 15:09 55.06532 11.94645 23567 ft 362 kts 220°
2026-05-04 15:10 55.02430 11.89445 24570 ft 366 kts 220°
2026-05-04 15:10 55.00366 11.86835 25069 ft 367 kts 220°
2026-05-04 15:10 54.96214 11.81590 26053 ft 370 kts 220°
2026-05-04 15:11 54.94126 11.78947 26541 ft 371 kts 220°
2026-05-04 15:11 54.92032 11.76296 27026 ft 372 kts 220°
2026-05-04 15:11 54.89958 11.73675 27498 ft 373 kts 221°
2026-05-04 15:11 54.87826 11.70988 27994 ft 375 kts 221°
2026-05-04 15:12 54.85741 11.68368 28458 ft 376 kts 221°
2026-05-04 15:12 54.83586 11.65665 28927 ft 377 kts 221°
2026-05-04 15:12 54.81456 11.62993 29378 ft 379 kts 221°
2026-05-04 15:12 54.79316 11.60312 29817 ft 380 kts 221°
2026-05-04 15:13 54.77167 11.57623 30211 ft 382 kts 221°
2026-05-04 15:13 54.75033 11.54960 30548 ft 384 kts 221°
2026-05-04 15:13 54.72825 11.52213 30850 ft 387 kts 220°
2026-05-04 15:13 54.70633 11.49486 31141 ft 390 kts 220°
2026-05-04 15:14 54.68449 11.46771 31428 ft 392 kts 220°
2026-05-04 15:14 54.66224 11.44008 31742 ft 394 kts 220°
2026-05-04 15:14 54.63999 11.41243 32143 ft 394 kts 220°
2026-05-04 15:14 54.61774 11.38485 32547 ft 394 kts 220°
2026-05-04 15:15 54.59544 11.35728 32927 ft 394 kts 220°
2026-05-04 15:15 54.57311 11.32973 33297 ft 395 kts 220°
2026-05-04 15:15 54.55074 11.30219 33682 ft 395 kts 220°
2026-05-04 15:16 54.50576 11.24725 34350 ft 396 kts 219°
2026-05-04 15:16 54.48314 11.21984 34642 ft 397 kts 219°
2026-05-04 15:16 54.43786 11.16492 35176 ft 399 kts 219°
2026-05-04 15:17 54.41547 11.13780 35463 ft 400 kts 219°
2026-05-04 15:17 54.36987 11.08273 35970 ft 402 kts 219°
2026-05-04 15:17 54.34698 11.05517 36215 ft 402 kts 219°
2026-05-04 15:18 54.32389 11.02785 36465 ft 405 kts 215°
2026-05-04 15:18 54.29863 11.00569 36691 ft 411 kts 206°
2026-05-04 15:18 54.27109 10.99129 36920 ft 417 kts 197°
2026-05-04 15:19 54.21436 10.96937 37373 ft 419 kts 197°
2026-05-04 15:19 54.18587 10.95843 37605 ft 419 kts 197°
2026-05-04 15:19 54.12889 10.93640 37958 ft 421 kts 197°
2026-05-04 15:20 54.07181 10.91422 37974 ft 420 kts 197°
2026-05-04 15:20 54.01482 10.89211 37973 ft 420 kts 197°
2026-05-04 15:21 53.95781 10.87003 37975 ft 420 kts 197°
2026-05-04 15:22 53.87228 10.83716 37973 ft 420 kts 197°
2026-05-04 15:22 53.78747 10.80463 37963 ft 420 kts 197°
2026-05-04 15:23 53.73045 10.78291 37965 ft 420 kts 197°
2026-05-04 15:23 53.67342 10.76118 37962 ft 420 kts 197°
2026-05-04 15:24 53.55926 10.71779 37959 ft 421 kts 197°
2026-05-04 15:25 53.50207 10.69624 37954 ft 421 kts 197°
2026-05-04 15:26 53.41626 10.66408 37952 ft 421 kts 197°
2026-05-04 15:26 53.33063 10.63196 37957 ft 420 kts 197°
2026-05-04 15:27 53.24513 10.59998 37957 ft 419 kts 197°
2026-05-04 15:28 53.15975 10.56819 37964 ft 418 kts 197°
2026-05-04 15:29 53.07505 10.53691 37978 ft 417 kts 197°
2026-05-04 15:30 52.87789 10.46443 37986 ft 413 kts 197°
2026-05-04 15:31 52.79390 10.43377 37984 ft 411 kts 197°
2026-05-04 15:32 52.65447 10.38307 37981 ft 409 kts 197°
2026-05-04 15:34 52.51564 10.33302 37980 ft 408 kts 197°
2026-05-04 15:34 52.43292 10.30334 37963 ft 407 kts 197°
2026-05-04 15:35 52.35006 10.27366 37963 ft 406 kts 197°
2026-05-04 15:36 52.26713 10.24413 37968 ft 406 kts 197°
2026-05-04 15:36 52.21198 10.22457 37972 ft 405 kts 197°
2026-05-04 15:37 52.15694 10.20506 37976 ft 404 kts 197°
2026-05-04 15:37 52.10195 10.18570 37981 ft 404 kts 197°
2026-05-04 15:38 52.04693 10.16630 37985 ft 404 kts 197°
2026-05-04 15:38 51.99196 10.14692 37979 ft 404 kts 197°
2026-05-04 15:39 51.93694 10.12757 37982 ft 404 kts 197°
2026-05-04 15:40 51.85456 10.09872 37976 ft 404 kts 196°
2026-05-04 15:40 51.79968 10.07967 37972 ft 403 kts 196°
2026-05-04 15:41 51.74475 10.06049 37965 ft 403 kts 196°
2026-05-04 15:41 51.69912 10.04461 37967 ft 403 kts 196°
2026-05-04 15:42 51.64425 10.02564 37964 ft 403 kts 196°
2026-05-04 15:42 51.58050 10.00366 37963 ft 403 kts 196°
2026-05-04 15:43 51.53445 9.98781 37958 ft 404 kts 195°
2026-05-04 15:43 51.47979 9.96906 37955 ft 404 kts 195°
2026-05-04 15:44 51.42478 9.95016 37957 ft 404 kts 195°
2026-05-04 15:44 51.36980 9.93135 37957 ft 404 kts 195°
2026-05-04 15:45 51.31466 9.91257 37955 ft 405 kts 195°
2026-05-04 15:45 51.25952 9.89391 37960 ft 405 kts 195°
2026-05-04 15:46 51.20374 9.88017 37962 ft 409 kts 187°
2026-05-04 15:46 51.14682 9.87522 37961 ft 410 kts 187°
2026-05-04 15:47 51.08980 9.87036 37972 ft 410 kts 187°
2026-05-04 15:47 51.03281 9.86537 37974 ft 410 kts 187°
2026-05-04 15:48 50.97589 9.86040 37976 ft 410 kts 187°
2026-05-04 15:48 50.89054 9.85302 37972 ft 409 kts 186°
2026-05-04 15:49 50.83360 9.84809 37975 ft 409 kts 187°
2026-05-04 15:49 50.77673 9.84306 37975 ft 409 kts 187°
2026-05-04 15:50 50.71981 9.83822 37973 ft 409 kts 187°
2026-05-04 15:50 50.66297 9.83332 37971 ft 409 kts 187°
2026-05-04 15:51 50.60656 9.82843 37975 ft 409 kts 187°
2026-05-04 15:51 50.54973 9.82359 37977 ft 409 kts 187°
2026-05-04 15:52 50.49293 9.81873 37975 ft 408 kts 187°
2026-05-04 15:52 50.43625 9.81393 37980 ft 408 kts 187°
2026-05-04 15:53 50.37954 9.80915 37978 ft 408 kts 187°
2026-05-04 15:53 50.32281 9.80429 37975 ft 408 kts 187°
2026-05-04 15:54 50.29441 9.80186 37808 ft 412 kts 187°
2026-05-04 15:54 50.26571 9.79939 37251 ft 412 kts 187°
2026-05-04 15:54 50.23730 9.79700 36799 ft 406 kts 187°
2026-05-04 15:54 50.20922 9.79465 36334 ft 402 kts 187°
2026-05-04 15:55 50.18144 9.79233 35864 ft 398 kts 187°
2026-05-04 15:55 50.15390 9.79005 35384 ft 395 kts 187°
2026-05-04 15:55 50.12654 9.78780 35003 ft 389 kts 187°
2026-05-04 15:55 50.09994 9.78564 34904 ft 377 kts 187°
2026-05-04 15:56 50.07356 9.78359 34523 ft 382 kts 185°
2026-05-04 15:56 50.04685 9.78463 33997 ft 384 kts 182°
2026-05-04 15:56 50.02017 9.78635 33417 ft 383 kts 182°
2026-05-04 15:56 49.99360 9.78806 32896 ft 381 kts 182°
2026-05-04 15:57 49.96720 9.78975 32373 ft 379 kts 182°
2026-05-04 15:57 49.94095 9.79140 31852 ft 377 kts 182°
2026-05-04 15:57 49.91482 9.79302 31358 ft 375 kts 182°
2026-05-04 15:57 49.88909 9.79463 30843 ft 373 kts 182°
2026-05-04 15:58 49.86321 9.79625 30338 ft 371 kts 182°
2026-05-04 15:58 49.83744 9.79790 29866 ft 369 kts 182°
2026-05-04 15:58 49.81147 9.79959 29763 ft 378 kts 182°
2026-05-04 15:58 49.78502 9.80127 29668 ft 382 kts 181°
2026-05-04 15:59 49.73173 9.80471 29446 ft 383 kts 181°
2026-05-04 15:59 49.70515 9.80641 29120 ft 380 kts 181°
2026-05-04 15:59 49.67873 9.80786 29032 ft 380 kts 182°
2026-05-04 16:00 49.65239 9.80907 28930 ft 379 kts 182°
2026-05-04 16:00 49.62601 9.81015 28838 ft 378 kts 182°
2026-05-04 16:00 49.59947 9.80661 28754 ft 388 kts 198°
2026-05-04 16:00 49.57496 9.79031 28472 ft 391 kts 215°
2026-05-04 16:01 49.55410 9.76352 28068 ft 381 kts 224°
2026-05-04 16:01 49.53536 9.73611 27676 ft 373 kts 224°
2026-05-04 16:01 49.51661 9.70842 27273 ft 365 kts 224°
2026-05-04 16:01 49.49868 9.68188 26892 ft 360 kts 224°
2026-05-04 16:02 49.48068 9.65521 26508 ft 357 kts 224°
2026-05-04 16:02 49.46291 9.62883 26132 ft 356 kts 224°
2026-05-04 16:02 49.42744 9.57611 25388 ft 353 kts 224°
2026-05-04 16:03 49.40927 9.54909 25032 ft 371 kts 224°
2026-05-04 16:03 49.39062 9.52137 24661 ft 375 kts 224°
2026-05-04 16:03 49.37186 9.49349 24311 ft 375 kts 224°
2026-05-04 16:03 49.35313 9.46566 23958 ft 374 kts 224°
2026-05-04 16:04 49.33445 9.43792 23611 ft 373 kts 224°
2026-05-04 16:04 49.29738 9.38292 22801 ft 369 kts 224°
2026-05-04 16:04 49.27892 9.35554 22400 ft 367 kts 224°
2026-05-04 16:05 49.26086 9.32873 22004 ft 364 kts 224°
2026-05-04 16:05 49.24273 9.30184 21616 ft 362 kts 224°
2026-05-04 16:05 49.20668 9.24834 20508 ft 360 kts 224°
2026-05-04 16:06 49.18872 9.22168 19886 ft 359 kts 224°
2026-05-04 16:06 49.14174 9.15190 18290 ft 345 kts 224°
2026-05-04 16:07 49.11898 9.11811 17414 ft 344 kts 224°
2026-05-04 16:07 49.06779 9.04270 15495 ft 335 kts 224°
2026-05-04 16:08 49.05086 9.01790 14874 ft 338 kts 224°
2026-05-04 16:08 49.00041 8.94442 13013 ft 329 kts 224°
2026-05-04 16:09 48.96790 8.89701 11702 ft 317 kts 224°
2026-05-04 16:09 48.93649 8.85107 10610 ft 307 kts 224°
2026-05-04 16:10 48.90737 8.80826 10440 ft 282 kts 224°
2026-05-04 16:11 48.85951 8.76337 9304 ft 278 kts 180°
2026-05-04 16:11 48.84034 8.76604 8860 ft 275 kts 174°
2026-05-04 16:12 48.78391 8.77714 7560 ft 274 kts 174°
2026-05-04 16:12 48.72612 8.78783 6299 ft 276 kts 174°
2026-05-04 16:13 48.68921 8.79448 5427 ft 259 kts 174°
2026-05-04 16:13 48.65973 8.81781 4579 ft 245 kts 120°
2026-05-04 16:14 48.64886 8.86641 3988 ft 239 kts 104°
2026-05-04 16:14 48.64061 8.91228 3995 ft 214 kts 104°
2026-05-04 16:15 48.64238 8.97375 4009 ft 195 kts 71°
2026-05-04 16:16 48.64999 9.01321 3809 ft 195 kts 71°
2026-05-04 16:16 48.66120 9.07162 3070 ft 189 kts 71°
2026-05-04 16:17 48.66789 9.10673 2590 ft 158 kts 70°
2026-05-04 16:18 48.67632 9.15084 2027 ft 139 kts 70°
2026-05-04 16:18 48.67893 9.16489 1848 ft 139 kts 70°
2026-05-04 16:19 48.68677 9.20580 1297 ft 132 kts 70°
2026-05-04 16:19 48.69191 9.23272 1942 ft 149 kts 70°
2026-05-04 16:20 48.70096 9.28255 3932 ft 189 kts 71°
2026-05-04 16:20 48.70933 9.32444 4858 ft 221 kts 71°
2026-05-04 16:21 48.72347 9.39097 5008 ft 221 kts 71°
2026-05-04 16:22 48.73887 9.42934 5009 ft 217 kts 31°
2026-05-04 16:22 48.78116 9.42433 5003 ft 215 kts 336°
2026-05-04 16:23 48.82517 9.39624 5009 ft 236 kts 336°
2026-05-04 16:24 48.85928 9.32477 5011 ft 231 kts 253°
2026-05-04 16:25 48.84438 9.28175 5008 ft 233 kts 240°
2026-05-04 16:26 48.81508 9.20327 5007 ft 232 kts 241°
2026-05-04 16:26 48.78863 9.13241 5006 ft 232 kts 241°
2026-05-04 16:27 48.77522 9.09673 5006 ft 232 kts 241°
2026-05-04 16:28 48.75018 9.03442 4993 ft 234 kts 232°
2026-05-04 16:28 48.71917 8.97729 4602 ft 233 kts 232°
2026-05-04 16:29 48.67663 8.90473 4118 ft 223 kts 207°
2026-05-04 16:30 48.63948 8.92578 4004 ft 204 kts 111°
2026-05-04 16:31 48.64096 8.96692 4021 ft 199 kts 71°
2026-05-04 16:31 48.65267 9.02715 3619 ft 198 kts 71°
2026-05-04 16:32 48.66396 9.08610 2887 ft 183 kts 72°
2026-05-04 16:33 48.67037 9.11968 2431 ft 153 kts 71°
2026-05-04 16:33 48.67606 9.14939 2038 ft 142 kts 69°
2026-05-04 16:34 48.68136 9.17745 1670 ft 135 kts 68°
2026-05-04 16:34 48.68399 9.19098 1480 ft 133 kts 69°
2026-05-04 16:35 48.69035 9.22451 1233 ft 60 kts 74°
2026-05-04 16:35 48.69319 9.23159 1217 ft 12 kts 18°
2026-05-04 16:36 48.69395 9.23114 1217 ft 13 kts 308°
2026-05-04 16:36 48.69376 9.22868 1221 ft 13 kts 254°
2026-05-04 16:37 48.69302 9.22475 1230 ft 21 kts 253°
2026-05-04 16:37 48.69262 9.22263 1249 ft 20 kts 254°
2026-05-04 16:37 48.69197 9.21920 1253 ft 12 kts 254°
2026-05-04 16:38 48.69154 9.21692 1258 ft 15 kts 253°
2026-05-04 16:39 48.69081 9.21304 1259 ft 16 kts 254°
2026-05-04 16:39 48.69010 9.20935 1265 ft 18 kts 254°
2026-05-04 16:40 48.68967 9.20619 1272 ft 9 kts 306°
2026-05-04 16:40 48.69056 9.20473 1276 ft 11 kts 301°
2026-05-04 16:41 48.69030 9.20262 1279 ft 16 kts 254°
2026-05-04 16:41 48.68972 9.20009 1286 ft 4 kts 237°
2026-05-04 16:42 48.68883 9.19781 1289 ft 12 kts 250°
2026-05-04 16:43 48.68843 9.19569 1288 ft 9 kts 254°
2026-05-04 16:43 48.68800 9.19511 1288 ft 3 kts 166°
2026-05-04 16:43 48.68781 9.19519 1288 ft 2 kts 164°
2026-05-04 16:44 48.68770 9.19523 1285 ft 0 kts 163°
2026-05-04 16:46 48.68771 9.19523 1285 ft 0 kts 163°